Wind_Speed
14 13 12 12 12 12 11 11 10 10 11 12 12 12 13 14 15 16 17 18 19 19 17 16 15 14 13 13 13 13 14 15 17 18 19 20 21 22 22 23 25 25
14 13 13 12 12 11 10 9 9 9 9 10 11 12 13 14 15 17 17 18 17 16 15 14 12 12 12 12 13 14 15 17 18 19 20 21 21 22 23 24 25 25
14 13 13 12 11 11 9 8 8 9 10 11 12 13 14 15 16 17 17 17 16 15 13 11 10 11 11 13 14 15 17 18 19 19 20 20 21 22 24 24 25 24
14 13 12 11 11 10 9 9 9 9 11 12 13 14 15 16 16 16 16 15 14 13 11 10 10 11 12 13 15 16 18 19 19 19 20 20 22 23 23 23 23 23
14 13 12 11 10 9 9 9 9 10 12 13 14 15 15 16 16 15 15 14 13 12 10 10 10 11 12 14 16 17 18 19 19 19 20 21 22 22 22 22 22 21
14 14 12 11 9 9 9 9 10 12 13 14 15 15 16 16 16 15 14 13 12 12 11 10 11 11 13 15 16 17 18 18 19 19 20 21 21 21 21 20 20 20
14 14 13 11 10 9 8 9 11 12 14 15 16 16 16 16 15 15 14 13 12 12 11 11 11 12 14 15 16 17 18 18 19 19 20 21 21 20 19 19 19 20
15 15 14 12 10 8 8 10 12 13 15 16 17 17 17 16 16 15 14 13 13 12 12 12 12 13 14 15 16 17 17 18 19 20 20 20 19 18 18 18 18 20
16 16 15 12 10 9 10 12 13 14 16 17 18 19 18 17 16 15 14 14 13 13 13 13 13 14 14 15 16 16 17 18 19 19 19 18 18 17 17 18 19 20
18 17 15 13 12 12 13 14 15 15 16 18 19 20 19 18 17 15 15 14 14 13 13 14 14 14 15 15 15 16 17 18 19 19 18 17 16 16 16 17 19 20
19 18 16 15 14 14 15 15 16 16 17 18 20 20 19 18 17 16 15 14 14 14 14 14 14 14 14 14 15 16 17 18 18 17 16 15 15 15 16 17 18 19
19 18 18 16 15 15 16 15 15 16 18 19 20 20 19 19 18 16 15 15 14 14 15 15 15 14 13 14 15 16 17 18 17 16 15 14 14 15 16 17 18 19
19 20 19 19 18 18 17 16 15 16 18 19 19 19 19 18 18 17 16 15 15 15 15 15 14 13 13 14 15 16 17 16 15 14 13 13 14 15 15 17 17 18
21 21 21 22 21 20 18 16 16 16 18 19 19 19 19 18 18 17 16 15 15 15 15 14 14 13 13 13 15 16 16 15 14 13 12 13 13 14 15 16 16 17
22 23 23 23 22 21 19 17 15 15 18 20 20 20 19 19 18 17 16 16 15 15 14 14 13 13 13 13 14 14 14 14 13 12 12 12 13 13 14 15 15 16
24 24 24 23 23 22 21 17 14 16 18 20 20 20 20 19 18 17 16 16 15 15 14 14 13 12 12 13 13 13 13 13 12 11 11 12 12 12 13 14 15 15
25 25 27 26 25 24 22 18 15 16 18 18 19 20 20 19 18 16 16 15 15 14 14 14 13 12 12 12 12 12 12 12 11 11 11 11 11 12 13 13 14 14
26 28 29 28 29 27 22 17 15 17 18 19 20 20 20 19 17 16 16 15 15 14 14 13 12 12 12 12 12 11 11 11 11 11 11 11 11 11 12 13 14 14
28 28 29 30 29 23 17 15 17 19 19 19 19 20 20 18 17 16 16 15 15 14 13 13 12 11 11 11 11 10 10 10 10 11 11 10 11 11 12 13 13 14
29 28 28 28 23 16 14 16 18 18 18 18 20 20 19 18 17 17 16 15 14 14 13 12 11 11 11 11 10 9 9 10 10 10 10 10 10 11 11 12 12 13
28 26 25 24 18 14 16 18 17 17 17 19 20 20 19 18 18 17 16 15 14 13 12 12 11 10 10 10 9 9 9 9 10 10 9 9 10 10 11 11 12 13
24 22 24 24 18 16 18 18 16 16 17 18 20 19 19 19 18 16 15 14 14 13 12 11 10 10 9 9 8 8 9 9 9 9 8 9 9 9 10 10 11 12
21 21 25 23 17 17 19 18 17 17 16 17 19 19 19 19 18 16 15 14 13 13 11 10 9 9 8 8 8 9 9 8 8 7 8 8 8 9 9 9 11 12
22 24 25 22 19 19 19 18 18 17 17 18 19 20 20 19 18 16 15 14 13 12 10 9 9 8 8 8 9 8 8 8 7 7 7 7 8 8 8 9 10 12
25 26 23 21 21 20 19 20 19 18 18 19 20 21 20 19 18 17 15 14 12 11 10 9 8 8 8 8 9 8 7 7 6 6 6 6 7 7 8 9 10 12
26 24 21 21 21 20 21 22 20 19 20 21 21 21 20 19 18 16 15 14 12 10 9 9 8 8 8 9 8 7 6 6 6 6 6 5 6 7 8 9 11 13
Wind_Direction
224 227 231 237 245 252 258 262 267 272 276 280 283 286 286 286 289 291 293 295 295 295 296 295 295 295 297 301 305 307 310 312 315 317 319 320 320 318 317 316 316 316
223 227 232 239 244 248 252 260 273 283 290 294 296 295 294 295 297 297 297 296 295 294 294 293 292 296 301 305 307 310 312 315 316 317 318 318 317 316 316 316 316 316
226 230 233 236 238 241 251 267 282 294 300 303 304 302 301 301 301 300 299 295 293 291 289 288 292 299 304 306 309 311 313 314 315 315 315 315 314 314 315 316 316 317
227 229 230 233 237 244 258 274 286 295 299 302 303 303 303 302 301 299 295 291 288 286 285 289 295 301 305 308 310 311 311 311 311 311 312 312 312 314 315 316 317 319
224 226 228 233 242 253 266 278 289 294 296 298 299 301 301 300 298 295 290 287 285 285 286 290 296 301 306 307 307 307 306 306 306 308 309 310 312 314 316 317 319 322
223 225 230 239 249 260 270 281 292 294 294 296 296 296 296 295 294 291 288 286 284 284 285 289 295 300 303 303 303 302 301 302 304 306 308 310 313 315 317 320 323 326
226 229 235 243 249 260 273 285 293 293 293 295 294 293 292 291 290 288 284 282 280 280 282 287 293 297 298 299 298 297 298 300 303 306 308 312 315 318 321 324 327 328
229 234 238 242 246 257 275 288 294 294 295 295 293 291 288 286 284 281 278 275 274 276 280 285 290 293 294 295 294 294 296 299 303 306 310 314 317 320 324 327 328 329
232 236 237 239 245 258 274 286 292 294 295 294 290 287 283 279 277 273 271 270 271 274 278 283 287 289 290 290 291 294 297 300 304 307 312 316 319 323 327 328 329 330
234 236 237 240 247 259 271 282 288 290 291 290 286 282 278 275 271 269 267 266 268 273 277 281 284 285 287 289 292 296 299 302 305 309 313 318 322 326 328 328 330 333
236 238 238 239 246 258 270 280 285 287 288 286 282 278 274 272 269 266 265 265 267 272 275 279 280 282 285 289 294 299 301 304 307 310 315 319 323 327 328 330 333 336
240 240 240 241 249 261 271 278 283 287 288 283 279 274 270 269 267 265 264 264 267 271 274 276 278 281 287 292 297 301 303 306 307 310 316 321 323 327 329 332 335 337
241 242 242 245 253 262 269 275 283 288 288 282 277 272 268 267 265 263 263 264 267 270 272 275 277 282 289 295 299 302 305 306 306 310 317 320 323 328 331 334 337 338
243 243 244 247 254 260 263 269 279 287 288 286 281 274 268 265 262 261 261 262 265 268 270 274 278 283 290 296 300 303 304 304 304 310 317 319 324 330 333 334 337 338
243 243 244 248 253 255 256 261 270 280 287 290 285 275 267 262 260 259 260 262 264 266 269 273 277 283 290 296 301 302 302 302 304 311 317 320 325 330 333 335 337 339
245 245 245 249 251 249 249 255 264 276 286 290 284 273 265 259 257 257 259 261 263 265 268 272 277 284 291 296 300 300 299 300 305 313 317 320 326 331 334 335 337 340
243 245 245 248 249 244 243 249 260 271 282 287 282 273 264 257 255 256 257 259 260 263 266 270 277 285 291 297 298 298 298 301 307 314 316 320 327 332 334 335 337 342
241 241 242 245 243 237 236 243 253 263 272 279 278 271 262 256 254 254 255 256 258 261 265 270 278 286 291 295 295 295 298 302 308 313 315 320 328 332 334 335 338 344
246 242 243 246 244 238 238 244 250 259 266 273 275 268 258 253 252 252 252 254 256 259 264 271 279 285 290 292 292 294 299 302 308 312 313 321 329 332 334 336 341 347
250 247 247 250 250 252 259 256 256 261 267 275 275 265 254 250 249 249 250 251 254 259 264 271 278 284 287 288 290 294 299 302 307 309 312 322 329 331 334 338 344 350
252 253 256 256 252 256 262 259 258 259 267 277 272 259 251 249 247 247 248 250 254 258 264 271 277 282 283 285 290 293 297 300 302 305 313 323 327 330 334 340 346 352
253 250 256 259 252 251 257 254 252 254 263 272 264 252 248 247 244 245 246 247 252 257 262 269 274 277 280 283 287 290 293 296 297 303 315 322 324 329 335 342 349 355
251 241 253 259 251 251 253 247 246 252 259 261 254 245 244 243 241 242 243 245 251 255 260 267 270 272 275 278 282 285 289 291 294 305 315 318 321 328 336 344 351 357
245 244 254 253 243 244 246 242 245 250 253 253 247 242 241 241 239 239 240 244 249 254 260 263 263 266 270 272 277 281 283 286 293 304 309 312 320 327 335 344 352 358
240 248 251 242 239 240 237 239 245 248 252 253 246 241 241 239 238 237 239 243 245 249 255 255 256 263 267 269 273 277 280 286 293 300 302 309 321 327 333 343 350 356
238 247 242 239 245 241 233 238 245 249 254 252 245 241 239 236 236 237 238 240 243 244 244 246 252 260 262 265 269 272 276 282 286 292 299 311 321 325 331 341 348 353
Height
3155 3156 3157 3158 3158 3159 3159 3160 3160 3161 3161 3161 3161 3161 3160 3160 3160 3160 3160 3159 3159 3158 3158 3157 3157 3157 3156 3155 3155 3154 3153 3152 3151 3150 3149 3149 3148 3147 3146 3145 3143 3142
3153 3155 3156 3156 3157 3158 3158 3158 3159 3159 3159 3159 3159 3158 3158 3158 3158 3158 3157 3157 3156 3156 3156 3156 3155 3155 3154 3154 3153 3153 3152 3151 3150 3149 3148 3147 3146 3145 3144 3143 3141 3140
3152 3153 3154 3155 3156 3156 3157 3157 3157 3157 3157 3157 3157 3157 3156 3156 3156 3156 3155 3155 3154 3154 3154 3154 3154 3153 3153 3152 3152 3151 3150 3149 3148 3148 3147 3146 3145 3143 3142 3141 3139 3138
3151 3152 3153 3154 3154 3155 3155 3155 3155 3155 3155 3155 3155 3155 3155 3154 3154 3154 3153 3153 3153 3153 3153 3152 3152 3152 3151 3151 3150 3150 3149 3148 3147 3146 3145 3144 3143 3142 3141 3139 3138 3136
3149 3150 3151 3152 3153 3153 3153 3154 3154 3153 3153 3153 3153 3153 3153 3152 3152 3152 3152 3151 3151 3151 3151 3151 3150 3150 3150 3149 3149 3148 3147 3146 3146 3145 3144 3143 3142 3141 3139 3138 3136 3134
3148 3149 3150 3151 3151 3152 3152 3152 3152 3152 3152 3151 3151 3151 3151 3150 3150 3150 3150 3149 3149 3149 3149 3149 3149 3148 3148 3148 3148 3147 3146 3145 3144 3143 3142 3141 3140 3139 3138 3136 3135 3133
3147 3147 3148 3149 3150 3150 3150 3150 3150 3150 3150 3150 3149 3149 3149 3148 3148 3148 3148 3148 3148 3148 3148 3148 3147 3147 3147 3147 3146 3146 3145 3144 3143 3142 3141 3140 3139 3137 3136 3135 3133 3132
3145 3146 3146 3147 3148 3148 3149 3149 3149 3148 3148 3147 3147 3147 3147 3147 3147 3146 3146 3146 3146 3146 3146 3146 3146 3146 3146 3145 3145 3144 3143 3142 3141 3140 3139 3138 3137 3136 3134 3133 3132 3131
3143 3144 3144 3145 3146 3147 3147 3147 3147 3146 3146 3145 3145 3145 3145 3145 3145 3145 3144 3144 3144 3145 3145 3145 3145 3144 3144 3144 3143 3143 3142 3141 3140 3139 3138 3136 3135 3134 3133 3132 3131 3129
3141 3142 3143 3143 3144 3145 3145 3145 3145 3144 3144 3144 3144 3144 3144 3144 3143 3143 3143 3143 3143 3143 3143 3144 3143 3143 3143 3142 3142 3141 3140 3139 3138 3137 3136 3135 3134 3133 3132 3131 3129 3128
3139 3140 3141 3141 3142 3143 3143 3143 3142 3142 3142 3142 3142 3142 3142 3142 3141 3141 3141 3141 3142 3142 3142 3142 3142 3141 3141 3141 3140 3140 3139 3138 3137 3135 3134 3133 3132 3131 3130 3129 3128 3127
3137 3138 3139 3140 3140 3141 3141 3141 3141 3140 3140 3141 3140 3140 3140 3140 3140 3140 3140 3140 3140 3140 3140 3140 3140 3140 3139 3139 3139 3139 3138 3137 3135 3134 3133 3132 3131 3130 3129 3128 3127 3125
3135 3136 3137 3138 3139 3139 3139 3139 3139 3139 3139 3139 3139 3138 3138 3138 3138 3138 3138 3139 3139 3139 3139 3139 3139 3138 3138 3138 3138 3137 3137 3136 3134 3133 3132 3131 3130 3129 3128 3127 3126 3124
3133 3134 3135 3136 3137 3137 3137 3137 3137 3137 3137 3137 3137 3136 3136 3136 3136 3136 3137 3137 3137 3137 3137 3137 3137 3137 3136 3136 3136 3136 3135 3134 3133 3132 3131 3130 3129 3128 3127 3126 3124 3123
3130 3132 3133 3133 3134 3135 3135 3135 3135 3135 3135 3135 3134 3134 3134 3134 3134 3135 3135 3135 3135 3135 3135 3135 3135 3135 3135 3135 3135 3134 3134 3133 3132 3131 3130 3129 3128 3127 3126 3125 3123 3122
3128 3129 3130 3131 3131 3132 3132 3132 3132 3132 3132 3132 3132 3132 3132 3132 3132 3133 3133 3133 3133 3133 3133 3134 3134 3134 3133 3134 3133 3133 3132 3131 3131 3130 3129 3128 3127 3126 3125 3124 3122 3121
3126 3127 3127 3128 3128 3128 3128 3128 3129 3129 3130 3130 3130 3130 3130 3130 3130 3130 3131 3131 3131 3131 3132 3132 3132 3132 3132 3132 3132 3131 3131 3130 3129 3129 3128 3127 3126 3124 3124 3122 3121 3120
3123 3124 3124 3124 3124 3123 3123 3124 3126 3126 3127 3128 3128 3128 3128 3128 3128 3128 3129 3129 3129 3130 3130 3131 3131 3131 3131 3130 3130 3130 3129 3128 3128 3127 3126 3125 3124 3123 3122 3121 3120 3119
3118 3120 3120 3120 3119 3119 3121 3122 3123 3124 3125 3125 3126 3125 3125 3126 3126 3126 3127 3127 3128 3128 3129 3129 3129 3129 3129 3129 3128 3128 3128 3127 3126 3126 3125 3124 3123 3122 3121 3120 3119 3117
3114 3115 3116 3116 3116 3118 3119 3120 3121 3121 3122 3123 3123 3123 3123 3123 3124 3124 3125 3125 3126 3127 3127 3127 3128 3127 3127 3127 3127 3127 3126 3125 3125 3124 3124 3123 3122 3121 3120 3119 3118 3116
3111 3112 3112 3112 3113 3115 3117 3118 3118 3119 3120 3120 3121 3121 3121 3122 3122 3123 3123 3124 3124 3125 3125 3126 3126 3126 3126 3125 3125 3125 3125 3124 3123 3123 3122 3121 3121 3120 3119 3118 3116 3115
3108 3110 3110 3110 3110 3113 3115 3115 3116 3116 3117 3118 3118 3118 3119 3119 3120 3121 3121 3122 3123 3123 3124 3124 3124 3124 3124 3124 3124 3123 3123 3123 3122 3121 3121 3120 3119 3119 3118 3116 3115 3114
3106 3108 3108 3108 3109 3111 3112 3113 3113 3114 3114 3115 3115 3116 3116 3117 3118 3119 3119 3120 3121 3121 3122 3122 3122 3122 3122 3122 3122 3122 3122 3121 3121 3120 3119 3119 3118 3118 3116 3115 3114 3113
3104 3105 3105 3106 3107 3108 3110 3110 3110 3111 3111 3112 3113 3113 3114 3115 3116 3116 3117 3118 3119 3120 3120 3121 3121 3121 3121 3121 3121 3121 3120 3120 3119 3119 3118 3118 3117 3116 3115 3114 3113 3111
3101 3102 3103 3104 3105 3106 3107 3108 3108 3108 3109 3110 3111 3111 3112 3113 3114 3114 3115 3116 3117 3118 3118 3119 3119 3119 3119 3119 3119 3119 3119 3118 3118 3118 3118 3117 3116 3115 3114 3113 3112 3110
3098 3099 3100 3101 3102 3103 3104 3104 3105 3105 3106 3107 3109 3109 3110 3111 3112 3113 3114 3114 3115 3116 3117 3117 3117 3118 3118 3118 3118 3117 3117 3117 3117 3117 3117 3116 3115 3114 3113 3112 3111 3109